Weather History for Big Piney, WY

Change the Weather History Date:

Saturday, November 24, 2012

  Actual Average Record
Temperature  
Mean Temperature 32 °F 19 °F  
Max Temperature 53 °F 33 °F 53 °F (2012)
Min Temperature 10 °F 6 °F -18 °F (2010)
Degree Days  
Heating Degree Days 33 46  
Month to date heating degree days 812 951  
Since 1 July heating degree days 1942 2531  
Cooling Degree Days 0 0  
Month to date cooling degree days 0 0  
Year to date cooling degree days 67 35  
Moisture  
Dew Point 16 °F    
Average Humidity 52    
Maximum Humidity 84    
Minimum Humidity 20    
Precipitation  
Precipitation 0.00 in 0.00 in 0.09 in (2002)
Month to date precipitation 0.15 0.17  
Year to date precipitation 2.65 6.14  
Sea Level Pressure  
Sea Level Pressure 30.21 in    
Wind  
Wind Speed 5 mph (North)    
Max Wind Speed 24 mph    
Max Gust Speed 30 mph    
Visibility 10 miles    
Events      
T = Trace of Precipitation, MM = Missing Value Source: NWS Daily Summary

Daily Weather History Graph

Daily Weather History Graph

Search for Another Location

Airport:

Trip Planner

Search our weather history database for the weather conditions in past years. The results will help you decide how hot, cold, wet, or windy it might be!

Date:

Astronomy

Nov. 24, 2012 Rise Set
Actual Time 7:23 AM MST 4:50 PM MST
Civil Twilight 6:52 AM MST 5:21 PM MST
Nautical Twilight 6:17 AM MST 5:56 PM MST
Astronomical Twilight 5:43 AM MST 6:30 PM MST
Moon 2:40 PM MST (11/24) 3:39 AM MST (11/24)
Length of Visible Light 10h 29m
Length of Day
9h 27m
Waxing Gibbous, 87% of the Moon is Illuminated
Nov 24
Waxing Gibbous
Nov 28
Full
Dec 6
Last Quarter
Dec 13
New
Dec 19
First Quarter

Hourly Weather History & Observations

Time (MST) Temp. Windchill Dew Point Humidity Pressure Visibility Wind Dir Wind Speed Gust Speed Precip Events Conditions
12:53 AM 17.1 °F - 10.9 °F 77% 30.35 in 10.0 mi Calm Calm - N/A   Clear
1:53 AM 16.0 °F 10.4 °F 10.9 °F 81% 30.33 in 10.0 mi NE 3.5 mph - N/A   Clear
2:53 AM 12.9 °F - 9.0 °F 84% 30.32 in 10.0 mi Calm Calm - N/A   Clear
3:53 AM 14.0 °F - 9.0 °F 80% 30.32 in 10.0 mi Calm Calm - N/A   Clear
4:53 AM 12.0 °F - 9.0 °F 88% 30.34 in 10.0 mi Calm Calm - N/A   Clear
5:53 AM 10.0 °F 3.6 °F 7.0 °F 87% 30.37 in 10.0 mi WNW 3.5 mph - N/A   Clear
6:53 AM 12.0 °F 5.9 °F 8.1 °F 84% 30.37 in 10.0 mi West 3.5 mph - N/A   Clear
7:53 AM 15.1 °F - 10.0 °F 80% 30.38 in 10.0 mi Calm Calm - N/A   Clear
8:53 AM 19.0 °F 12.3 °F 12.9 °F 77% 30.36 in 10.0 mi ENE 4.6 mph - N/A   Clear
9:53 AM 26.1 °F - 18.0 °F 71% 30.33 in 10.0 mi Calm Calm - N/A   Clear
10:53 AM 34.0 °F - 18.0 °F 52% 30.27 in 10.0 mi Calm Calm - N/A   Clear
11:53 AM 37.9 °F 34.4 °F 18.0 °F 45% 30.20 in 10.0 mi SE 4.6 mph - N/A   Scattered Clouds
12:53 PM 43.0 °F - 17.1 °F 35% 30.16 in 10.0 mi Calm Calm - N/A   Mostly Cloudy
1:53 PM 53.1 °F - 14.0 °F 21% 30.09 in 10.0 mi NW 13.8 mph 20.7 mph N/A   Clear
2:53 PM 52.0 °F - 15.1 °F 23% 30.09 in 10.0 mi NW 19.6 mph 24.2 mph N/A   Clear
3:53 PM 46.9 °F - 18.0 °F 32% 30.11 in 10.0 mi NNW 16.1 mph - N/A   Mostly Cloudy
4:53 PM 44.1 °F 36.5 °F 19.9 °F 38% 30.13 in 10.0 mi WNW 17.3 mph - N/A   Scattered Clouds
5:53 PM 37.9 °F 35.5 °F 19.9 °F 48% 30.17 in 10.0 mi Variable 3.5 mph - N/A   Clear
6:53 PM 39.9 °F - 21.0 °F 47% 30.14 in 10.0 mi Calm Calm - N/A   Clear
7:53 PM 37.9 °F 33.5 °F 23.0 °F 55% 30.12 in 10.0 mi WNW 5.8 mph - N/A   Overcast
8:53 PM 37.0 °F 34.5 °F 25.0 °F 62% 30.11 in 10.0 mi SE 3.5 mph - N/A   Partly Cloudy
9:53 PM 37.0 °F 31.6 °F 25.0 °F 62% 30.05 in 10.0 mi East 6.9 mph - N/A   Clear
10:53 PM 37.9 °F - 25.0 °F 60% 30.00 in 10.0 mi Calm Calm - N/A   Clear
11:53 PM 30.9 °F 24.3 °F 25.0 °F 79% 30.00 in 10.0 mi ENE 6.9 mph - N/A   Scattered Clouds